Location: Wells
(51.2093°N, 2.6446°W)
Time: 16:08:30
(UTC+00:00)

AO-91 - Visible Passes

Search period start: 14 March 2026 00:00
Search period end: 24 March 2026 00:00
Orbit: 427 x 640 km, 97.5° (Epoch: 14 March)

Date Brightness Start Highest point End Pass type
(mag) Time Alt. Az. Time Alt. Az. Time Alt. Az.
14 Mar ? 20:22:05 10° NE 20:22:30 12° NE 20:22:30 12° NE visible
14 Mar ? 21:55:59 10° N 21:57:52 24° N 21:57:52 24° N visible
15 Mar ? 20:12:53 10° NE 20:13:07 11° NE 20:13:07 11° NE visible
15 Mar ? 21:46:28 10° N 21:48:29 26° N 21:48:29 26° N visible
15 Mar ? 23:23:30 10° NW 23:23:52 10° NW 23:23:52 10° NW visible
16 Mar ? 21:36:57 10° N 21:39:04 27° N 21:39:04 27° N visible
16 Mar ? 23:13:10 10° NNW 23:14:26 12° NW 23:14:26 12° NW visible
17 Mar ? 21:27:26 10° NNE 21:29:38 29° NNE 21:29:38 29° NNE visible
17 Mar ? 23:03:12 10° NNW 23:05:01 14° NW 23:05:01 14° NW visible
18 Mar ? 21:17:55 10° NNE 21:20:10 29° NNE 21:20:10 29° NNE visible
18 Mar ? 22:53:21 10° NNW 22:55:32 17° NW 22:55:32 17° NW visible
19 Mar ? 21:08:24 10° NNE 21:10:40 29° NNE 21:10:40 29° NNE visible
19 Mar ? 22:43:33 10° NNW 22:46:02 19° NW 22:46:02 19° NW visible
20 Mar ? 20:58:54 10° NNE 21:01:09 27° NE 21:01:09 27° NE visible
20 Mar ? 22:33:47 10° N 22:36:31 22° NW 22:36:31 22° NW visible
21 Mar ? 20:49:24 10° NNE 20:51:36 25° NE 20:51:36 25° NE visible
21 Mar ? 22:24:04 10° N 22:26:58 26° NW 22:26:58 26° NW visible
22 Mar ? 20:39:56 10° NNE 20:42:02 23° NE 20:42:02 23° NE visible
22 Mar ? 22:14:19 10° N 22:17:24 30° NW 22:17:24 30° NW visible
23 Mar ? 20:30:29 10° NE 20:32:25 20° NE 20:32:25 20° NE visible
23 Mar ? 22:04:36 10° N 22:07:47 35° NW 22:07:47 35° NW visible
